QFA290 YMML-YSSY

Flight info

Callsign QFA290
Flight time N/A
Altitude 37000
Route DOSEL2/34 DOSEL Y59 RIVET
Aircraft B772/H-SDE2E3FGHIJ5LORVWXY/LB1D1

Departure

Time N/A
Airport Melbourne Airport (YMML)

Arrival

Time 2026-04-30 10:40
Airport Sydney Kingsford Smith International Airport (YSSY)
Time Latitude Longitude Altitude Speed Heading
2026-04-30 09:59 -36.00660 147.36203 37375 ft 472 kts 52°
2026-04-30 09:59 -35.96736 147.42668 37539 ft 473 kts 52°
2026-04-30 10:00 -35.92831 147.49091 37385 ft 465 kts 51°
2026-04-30 10:00 -35.90881 147.52293 37375 ft 466 kts 51°
2026-04-30 10:01 -35.85036 147.61873 37387 ft 467 kts 51°
2026-04-30 10:02 -35.79175 147.71452 37389 ft 467 kts 51°
2026-04-30 10:02 -35.75274 147.77815 37395 ft 469 kts 51°
2026-04-30 10:03 -35.71338 147.84221 37394 ft 469 kts 51°
2026-04-30 10:03 -35.67416 147.90595 37389 ft 470 kts 51°
2026-04-30 10:04 -35.63481 147.96977 37391 ft 469 kts 51°
2026-04-30 10:04 -35.59526 148.03380 37387 ft 471 kts 51°
2026-04-30 10:05 -35.55577 148.09760 37392 ft 470 kts 51°
2026-04-30 10:05 -35.51613 148.16156 37386 ft 469 kts 51°
2026-04-30 10:06 -35.47661 148.22516 37390 ft 470 kts 51°
2026-04-30 10:06 -35.43706 148.28873 37389 ft 470 kts 52°
2026-04-30 10:07 -35.39720 148.35266 37398 ft 471 kts 52°
2026-04-30 10:07 -35.35746 148.41629 37412 ft 473 kts 52°
2026-04-30 10:08 -35.31760 148.48000 37418 ft 471 kts 52°
2026-04-30 10:08 -35.27765 148.54372 37415 ft 470 kts 52°
2026-04-30 10:09 -35.23800 148.60684 37414 ft 471 kts 52°
2026-04-30 10:09 -35.19826 148.67001 37403 ft 468 kts 51°
2026-04-30 10:09 -35.17833 148.70163 37511 ft 468 kts 51°
2026-04-30 10:10 -35.15843 148.73320 37199 ft 475 kts 51°
2026-04-30 10:10 -35.13829 148.76511 37539 ft 471 kts 51°
2026-04-30 10:10 -35.11817 148.79697 37131 ft 470 kts 52°
2026-04-30 10:10 -35.09837 148.82828 37371 ft 468 kts 52°
2026-04-30 10:11 -35.07836 148.85989 37392 ft 474 kts 52°
2026-04-30 10:11 -35.03816 148.92333 37394 ft 472 kts 52°
2026-04-30 10:12 -34.99842 148.98593 37112 ft 466 kts 52°
2026-04-30 10:12 -34.97836 149.01747 36692 ft 469 kts 52°
2026-04-30 10:12 -34.95822 149.04913 36333 ft 470 kts 52°
2026-04-30 10:12 -34.93837 149.08029 36120 ft 468 kts 52°
2026-04-30 10:13 -34.91840 149.11163 35918 ft 467 kts 52°
2026-04-30 10:13 -34.89842 149.14294 35691 ft 467 kts 52°
2026-04-30 10:13 -34.87832 149.17442 35441 ft 467 kts 52°
2026-04-30 10:13 -34.85852 149.20541 35173 ft 468 kts 52°
2026-04-30 10:14 -34.83831 149.23700 34937 ft 468 kts 52°
2026-04-30 10:14 -34.81844 149.26805 34715 ft 467 kts 52°
2026-04-30 10:14 -34.77853 149.33031 34220 ft 467 kts 52°
2026-04-30 10:15 -34.75854 149.36145 33990 ft 467 kts 52°
2026-04-30 10:15 -34.73927 149.39366 33732 ft 467 kts 58°
2026-04-30 10:15 -34.72346 149.42796 33423 ft 468 kts 62°
2026-04-30 10:15 -34.70837 149.46262 33064 ft 470 kts 63°
2026-04-30 10:16 -34.69292 149.49818 32584 ft 467 kts 63°
2026-04-30 10:16 -34.67791 149.53267 31697 ft 467 kts 63°
2026-04-30 10:16 -34.66277 149.56743 30918 ft 463 kts 63°
2026-04-30 10:17 -34.63319 149.63512 29931 ft 448 kts 63°
2026-04-30 10:17 -34.60327 149.70342 28798 ft 460 kts 62°
2026-04-30 10:17 -34.58828 149.73759 28223 ft 454 kts 62°
2026-04-30 10:18 -34.57358 149.77106 27665 ft 447 kts 62°
2026-04-30 10:18 -34.55902 149.80415 27093 ft 440 kts 62°
2026-04-30 10:18 -34.54479 149.83647 26533 ft 434 kts 62°
2026-04-30 10:19 -34.51631 149.90109 25392 ft 430 kts 62°
2026-04-30 10:19 -34.50245 149.93249 24835 ft 426 kts 62°
2026-04-30 10:19 -34.48838 149.96431 24270 ft 421 kts 62°
2026-04-30 10:19 -34.47477 149.99507 23715 ft 417 kts 62°
2026-04-30 10:20 -34.46117 150.02579 23145 ft 413 kts 62°
2026-04-30 10:20 -34.43419 150.08662 22018 ft 405 kts 62°
2026-04-30 10:20 -34.42103 150.11627 21455 ft 402 kts 62°
2026-04-30 10:21 -34.40761 150.14647 20882 ft 399 kts 62°
2026-04-30 10:21 -34.39460 150.17572 20323 ft 396 kts 62°
2026-04-30 10:21 -34.38161 150.20489 19756 ft 392 kts 62°
2026-04-30 10:21 -34.36863 150.23402 19193 ft 389 kts 62°
2026-04-30 10:22 -34.35627 150.26176 18655 ft 386 kts 62°
2026-04-30 10:22 -34.34309 150.29129 18068 ft 384 kts 62°
2026-04-30 10:22 -34.33058 150.31929 17511 ft 380 kts 62°
2026-04-30 10:22 -34.31803 150.34738 16957 ft 376 kts 62°
2026-04-30 10:23 -34.30561 150.37512 16396 ft 373 kts 62°
2026-04-30 10:23 -34.29334 150.40253 15838 ft 371 kts 62°
2026-04-30 10:23 -34.28115 150.42973 15291 ft 368 kts 62°
2026-04-30 10:23 -34.26898 150.45695 14745 ft 364 kts 62°
2026-04-30 10:24 -34.25700 150.48375 14196 ft 362 kts 62°
2026-04-30 10:24 -34.24507 150.51042 13652 ft 359 kts 62°
2026-04-30 10:24 -34.23329 150.53676 13117 ft 355 kts 62°
2026-04-30 10:24 -34.22152 150.56302 12579 ft 353 kts 62°
2026-04-30 10:25 -34.20986 150.58902 12037 ft 350 kts 62°
2026-04-30 10:25 -34.19834 150.61470 11505 ft 347 kts 62°
2026-04-30 10:25 -34.18699 150.63997 11077 ft 339 kts 62°
2026-04-30 10:25 -34.17586 150.66472 10883 ft 325 kts 61°
2026-04-30 10:26 -34.16532 150.68814 10585 ft 316 kts 61°
2026-04-30 10:26 -34.15493 150.71118 10375 ft 302 kts 61°
2026-04-30 10:26 -34.14516 150.73286 10236 ft 287 kts 61°
2026-04-30 10:26 -34.13581 150.75360 10127 ft 273 kts 61°
2026-04-30 10:27 -34.12686 150.77345 9933 ft 268 kts 61°
2026-04-30 10:27 -34.11792 150.79329 9584 ft 268 kts 61°
2026-04-30 10:27 -34.10897 150.81311 9244 ft 268 kts 61°
2026-04-30 10:27 -34.10017 150.83260 8935 ft 266 kts 61°
2026-04-30 10:28 -34.09134 150.85222 8731 ft 263 kts 62°
2026-04-30 10:28 -34.08256 150.87175 8555 ft 260 kts 62°
2026-04-30 10:28 -34.07392 150.89094 8386 ft 260 kts 62°
2026-04-30 10:28 -34.06540 150.90987 8223 ft 258 kts 62°
2026-04-30 10:29 -34.05684 150.92889 8010 ft 256 kts 62°
2026-04-30 10:29 -34.04832 150.94778 7817 ft 255 kts 62°
2026-04-30 10:29 -34.03983 150.96661 7634 ft 255 kts 62°
2026-04-30 10:29 -34.03307 150.98628 7450 ft 254 kts 78°
2026-04-30 10:30 -34.03363 151.00690 7262 ft 246 kts 103°
2026-04-30 10:30 -34.04124 151.02492 7087 ft 239 kts 125°
2026-04-30 10:30 -34.05183 151.04054 6913 ft 237 kts 130°
2026-04-30 10:30 -34.06280 151.05516 6751 ft 236 kts 132°
2026-04-30 10:31 -34.07439 151.06950 6574 ft 235 kts 139°
2026-04-30 10:31 -34.08868 151.07861 6399 ft 237 kts 161°
2026-04-30 10:31 -34.10472 151.08353 6222 ft 237 kts 166°
2026-04-30 10:31 -34.12083 151.08778 6051 ft 237 kts 166°
2026-04-30 10:32 -34.13714 151.09199 5885 ft 235 kts 166°
2026-04-30 10:32 -34.15313 151.09613 5705 ft 236 kts 166°
2026-04-30 10:32 -34.16927 151.10031 5538 ft 236 kts 166°
2026-04-30 10:32 -34.18485 151.10628 5357 ft 233 kts 149°
2026-04-30 10:33 -34.19591 151.12003 5163 ft 227 kts 117°
2026-04-30 10:33 -34.19899 151.13826 5048 ft 222 kts 85°
2026-04-30 10:33 -34.19537 151.15622 5033 ft 222 kts 74°
2026-04-30 10:33 -34.18905 151.17297 5019 ft 221 kts 52°
2026-04-30 10:34 -34.17849 151.18524 5000 ft 199 kts 43°
2026-04-30 10:35 -34.13896 151.22418 3819 ft 183 kts 14°
2026-04-30 10:35 -34.12631 151.22308 3195 ft 184 kts 352°
2026-04-30 10:35 -34.11426 151.21959 2953 ft 168 kts 351°
2026-04-30 10:35 -34.10327 151.21654 2750 ft 155 kts 353°
2026-04-30 10:36 -34.09301 151.21387 2556 ft 147 kts 353°
2026-04-30 10:36 -34.08326 151.21135 2371 ft 140 kts 354°
2026-04-30 10:36 -34.07382 151.20891 2185 ft 136 kts 354°
2026-04-30 10:36 -34.06480 151.20659 2028 ft 134 kts 354°
2026-04-30 10:37 -34.05568 151.20424 1852 ft 134 kts 354°
2026-04-30 10:37 -34.04646 151.20183 1675 ft 134 kts 354°
2026-04-30 10:37 -34.03728 151.19948 1494 ft 134 kts 354°
2026-04-30 10:37 -34.02823 151.19713 1318 ft 134 kts 353°
2026-04-30 10:38 -34.01897 151.19473 1132 ft 134 kts 353°
2026-04-30 10:38 -34.00976 151.19235 950 ft 135 kts 352°
2026-04-30 10:38 -34.00047 151.18991 787 ft 135 kts 352°
2026-04-30 10:38 -33.99115 151.18776 608 ft 136 kts 353°
2026-04-30 10:39 -33.98173 151.18520 430 ft 137 kts 349°
2026-04-30 10:39 -33.97244 151.18271 238 ft 135 kts 353°
2026-04-30 10:39 -33.96302 151.18042 70 ft 136 kts 349°
2026-04-30 10:39 -33.95404 151.17810 41 ft 115 kts 351°
2026-04-30 10:40 -33.94759 151.17630 41 ft 76 kts 348°
2026-04-30 10:40 -33.94472 151.17555 41 ft 25 kts 348°
2026-04-30 10:40 -33.94399 151.17561 41 ft 10 kts 40°
2026-04-30 10:40 -33.94369 151.17633 41 ft 8 kts 72°
2026-04-30 10:41 -33.94368 151.17636 41 ft 0 kts 73°
2026-04-30 10:42 -33.94364 151.17653 41 ft 4 kts 73°
2026-04-30 10:42 -33.94352 151.17702 41 ft 4 kts 71°
2026-04-30 10:43 -33.94317 151.17723 41 ft 8 kts
2026-04-30 10:43 -33.94242 151.17708 41 ft 13 kts 347°
2026-04-30 10:43 -33.94151 151.17679 41 ft 11 kts 344°
2026-04-30 10:43 -33.94056 151.17650 41 ft 16 kts 347°
2026-04-30 10:44 -33.93969 151.17629 41 ft 9 kts 348°
2026-04-30 10:44 -33.93886 151.17606 41 ft 14 kts 347°
2026-04-30 10:44 -33.93774 151.17577 41 ft 18 kts 348°
2026-04-30 10:44 -33.93637 151.17546 41 ft 21 kts 350°
2026-04-30 10:45 -33.93545 151.17519 41 ft 11 kts 346°
2026-04-30 10:45 -33.93489 151.17509 41 ft 5 kts 27°
2026-04-30 10:45 -33.93454 151.17566 41 ft 10 kts 51°
2026-04-30 10:45 -33.93379 151.17589 41 ft 11 kts 352°
2026-04-30 10:46 -33.93284 151.17567 41 ft 15 kts 348°
2026-04-30 10:46 -33.93162 151.17535 41 ft 19 kts 348°
2026-04-30 10:46 -33.93074 151.17523 41 ft 11 kts 10°
2026-04-30 10:46 -33.93033 151.17540 41 ft 0 kts 33°
2026-04-30 10:47 -33.93024 151.17551 41 ft 4 kts 45°
2026-04-30 10:47 -33.93010 151.17589 41 ft 0 kts 97°
2026-04-30 10:47 -33.93019 151.17607 41 ft 4 kts 141°
2026-04-30 10:47 -33.93058 151.17615 41 ft 4 kts 169°
2026-04-30 10:48 -33.93080 151.17621 41 ft 3 kts 168°
2026-04-30 10:48 -33.93090 151.17622 41 ft 0 kts 167°